Tracking 21094 objects as of 11-Aug-2020
HD Live streaming from Space Station
objects crossing your sky now
Track the most recent launched group of Starlink satellites

SAUDISAT 3

Track SAUDISAT 3 now!
10-day predictions
SAUDISAT 3 is classified as:


NORAD ID: 31118
Int'l Code: 2007-012B
Perigee: 660.3 km
Apogee: 681.4 km
Inclination: 97.9 °
Period: 98.0 minutes
Semi major axis: 7041 km
RCS: 0.633 m2 (medium)
Launch date: April 17, 2007
Source: Saudi Arabia (SAUD)
Launch site: TYURATAM MISSILE AND SPACE COMPLEX (TTMTR)
aabbcc
Your satellite tracking list
Your tracking list is empty




NASA's NSSDC Master Catalog

Two Line Element Set (TLE):
1 31118U 07012B   20224.59620549 -.00000003  00000-0  75419-5 0  9999
2 31118  97.8736 180.8194 0015014 181.9236 178.1914 14.69168840714064
Source of the keplerian elements: AFSPC